Flight Track Log - Related Links

Times and Time Zones

All times are in EDT time to prevent confusion due to time zone crossing. See the N754HC flight status page for this flight to view local times or setup timezone preferences in your user account.

Time Position Orientation Groundspeed Altitude Reporting Facility
EDT Latitude Longitude Course Direction KTS MPH feet Rate Location/Type
Thu 01:04:15 PM 28.5113 -81.2990 38° Northeast  Level FlightAware Approximate
Thu 01:05:33 PM 28.5667 -81.2500 90° East 132 152 1,600  Level Orlando TRACON
Thu 01:06:39 PM 28.5667 -81.2000 139° Southeast 134 154 2,000 236 Climbing Orlando TRACON
Thu 01:07:40 PM 28.5333 -81.1667 120° Southeast 141 162 2,100 189 Climbing Orlando TRACON
Thu 01:08:46 PM 28.5167 -81.1333 120° Southeast 140 161 2,400 450 Climbing Orlando TRACON
Thu 01:09:40 PM 28.5000 -81.1000 139° Southeast 128 147 3,000 730 Climbing Orlando TRACON
Thu 01:10:41 PM 28.4667 -81.0667 139° Southeast 126 145 3,800 694 Climbing Orlando TRACON
Thu 01:11:41 PM 28.4500 -81.0500 139° Southeast 128 147 4,400 650 Climbing Orlando TRACON
Thu 01:12:41 PM 28.4167 -81.0167 156° South 125 144 5,100 700 Climbing Orlando TRACON
Thu 01:13:41 PM 28.3833 -81.0000 139° Southeast 116 133 5,800 450 Climbing Orlando TRACON
Thu 01:14:41 PM 28.3667 -80.9833 180° South 131 151 6,000 100 Climbing Orlando TRACON
Thu 01:15:41 PM 28.3167 -80.9833 156° South 139 160 6,000  Level Orlando TRACON
Thu 01:16:36 PM 28.2833 -80.9667 180° South 143 165 6,000  Level Orlando TRACON
Thu 01:17:36 PM 28.2500 -80.9667 156° South 138 159 6,000  Level Orlando TRACON
Thu 01:18:36 PM 28.2167 -80.9500 177° South 130 150 6,000  Level Orlando TRACON
Thu 01:19:13 PM 28.1881 -80.9481 171° South 130 150 6,000  Level Miami Center
Thu 01:20:13 PM 28.1550 -80.9422 168° South 135 155 6,000  Level Miami Center
Thu 01:21:13 PM 28.1217 -80.9342 172° South 135 155 6,000  Level Miami Center
Thu 01:22:13 PM 28.0844 -80.9281 169° South 135 155 6,000  Level Miami Center
Thu 01:23:13 PM 28.0450 -80.9194 167° South 135 155 6,000  Level Miami Center
Thu 01:24:13 PM 28.0119 -80.9111 172° South 140 161 6,000  Level Miami Center
Thu 01:25:13 PM 27.9722 -80.9050 171° South 140 161 6,000  Level Miami Center
Thu 01:26:13 PM 27.9392 -80.8992 168° South 140 161 6,000  Level Miami Center
Thu 01:27:13 PM 27.9039 -80.8908 169° South 140 161 6,000  Level Miami Center
Thu 01:28:13 PM 27.8644 -80.8825 175° South 140 161 6,000  Level Miami Center
Thu 01:29:13 PM 27.8269 -80.8789 168° South 140 161 6,000  Level Miami Center
Thu 01:30:13 PM 27.7917 -80.8706 172° South 140 161 6,000  Level Miami Center
Thu 01:31:13 PM 27.7564 -80.8647 169° South 140 161 6,000  Level Miami Center
Thu 01:32:13 PM 27.7169 -80.8561 175° South 140 161 6,000 50 Level Miami Center
Thu 01:33:13 PM 27.6817 -80.8525 169° South 140 161 6,100 50 Climbing Miami Center
Thu 01:34:13 PM 27.6464 -80.8444 171° South 140 161 6,100  Level Miami Center
Thu 01:35:13 PM 27.6131 -80.8386 173° South 140 161 6,100  Level Miami Center
Thu 01:36:13 PM 27.5694 -80.8322 172° South 140 161 6,100  Level Miami Center
Thu 01:37:13 PM 27.5319 -80.8264 169° South 140 161 6,100  Level Miami Center
Thu 01:38:13 PM 27.4947 -80.8181 172° South 140 161 6,100  Level Miami Center
Thu 01:39:13 PM 27.4572 -80.8119 162° South 140 161 6,100  Level Miami Center
Thu 01:40:13 PM 27.4222 -80.7992 175° South 140 161 6,100 -50 Level Miami Center
Thu 01:41:13 PM 27.3867 -80.7956 175° South 140 161 6,000  Descending Miami Center
Thu 01:42:13 PM 27.3492 -80.7919 175° South 140 161 6,100 50 Climbing Miami Center
Thu 01:43:13 PM 27.3181 -80.7886 169° South 140 161 6,100  Level Miami Center
Thu 01:44:13 PM 27.2786 -80.7803 170° South 140 161 6,100  Level Miami Center
Thu 01:45:13 PM 27.2369 -80.7719 172° South 140 161 6,100  Level Miami Center
Thu 01:46:13 PM 27.1997 -80.7658 172° South 140 161 6,100  Level Miami Center
Thu 01:47:13 PM 27.1622 -80.7600 172° South 140 161 6,100  Level Miami Center
Thu 01:48:13 PM 27.1269 -80.7542 169° South 140 161 6,100  Level Miami Center
Thu 01:49:13 PM 27.0894 -80.7458 170° South 140 161 6,100  Level Miami Center
Thu 01:50:13 PM 27.0481 -80.7375 175° South 140 161 6,100  Level Miami Center
Thu 01:51:13 PM 27.0106 -80.7339 164° South 140 161 6,100 -229 Level Miami Center
Thu 02:03:47 PM 26.5239 -80.5739 156° South 137 158 3,000 -228 Descending Miami Center
Thu 02:04:48 PM 26.4889 -80.5567 156° South 134 154 3,000  Level Miami Center
Thu 02:05:49 PM 26.4539 -80.5392 160° South 134 154 3,000  Level Miami Center
Thu 02:06:50 PM 26.4167 -80.5242 162° South 138 159 3,000  Level Miami Center
Thu 02:07:51 PM 26.3814 -80.5114 169° South 137 158 3,000  Level Miami Center
Thu 02:08:52 PM 26.3442 -80.5033 169° South 134 154 3,000  Level Miami Center
Thu 02:09:53 PM 26.3067 -80.4953 172° South 137 158 3,000  Level Miami Center
Thu 02:10:48 PM 26.2733 -80.4897 165° South 134 154 3,000  Level Miami Center
Thu 02:11:49 PM 26.2381 -80.4792 182° South 134 154 3,000  Level Miami Center
Thu 02:12:50 PM 26.2006 -80.4806 176° South 133 153 3,000  Level Miami Center
Thu 02:13:51 PM 26.1589 -80.4769 182° South 135 155 3,000  Level Miami Center
Thu 02:14:52 PM 26.1211 -80.4781 173° South 138 159 3,000  Level Miami Center
Thu 02:15:59 PM 26.0794 -80.4722 181° South 140 161 3,000  Level Miami Center
Thu 02:17:00 PM 26.0378 -80.4731 176° South 142 163 3,000  Level Miami Center
Thu 02:18:01 PM 25.9981 -80.4697 133° Southeast 137 158 3,000  Level Miami Center
Thu 02:19:03 PM 25.9758 -80.4436 127° Southeast 131 151 3,000  Level Miami Center
Thu 02:20:04 PM 25.9536 -80.4106 129° Southeast 133 153 3,000  Level Miami Center
Thu 02:21:05 PM 25.9294 -80.3775 130° Southeast 134 154 3,000  Level Miami Center
Thu 02:22:06 PM 25.9031 -80.3422 138° Southeast 134 154 3,000 -47 Level Miami Center
Thu 02:23:13 PM 25.8767 -80.3161 257° West 138 159 2,900 -234 Descending Miami Center
Thu 02:24:14 PM 25.8672 -80.3619 200° South 160 184 2,500 -393 Descending Miami Center
Thu 02:25:15 PM 25.8356 -80.3747 159° South 119 137 2,100 -537 Descending Miami Center
Thu 02:26:17 PM 25.8064 -80.3625 105° East 112 129 1,400 -634 Descending Miami Center
Thu 02:27:18 PM 25.7989 -80.3322 105° East 108 124 800 -590 Descending Miami Center

Login

Don't have an account? Register now (free) for customized features, flight alerts, and more!